When you browse on this site, cookies collect data to enhance your experience and personalize the content and advertising you see.
Visit our Privacy Policy to learn more. By continuing to use the site, you agree to this use of cookies and data.
  • In Austria
  • List of Countries
  • For 7 days
  • Water Temperature
  • Satellite Maps
  • Weather Map
  • News
  • Weather Widgets
  • user-avatar
    Login

    Hourly Weather Konstantyna

    Today, 26 March, Tuesday

    Time Temperature Precipitation Wind Pressure Humidity
    00:00 +9°C° 0 mm 0 mps 709 mmHg 84%
    01:00 +9°C° 0 mm 0 mps 709 mmHg 83%
    02:00 +10°C° 0 mm 0 mps 709 mmHg 82%
    03:00 +10°C° 0 mm 0 mps 709 mmHg 81%
    04:00 +10°C° 0 mm 1 mps 709 mmHg 83%
    05:00 +10°C° 0 mm 1 mps 709 mmHg 85%
    06:00 +9°C° 0 mm 1 mps 709 mmHg 88%
    07:00 +9°C° 0 mm 2 mps 709 mmHg 81%
    08:00 +12°C° 0 mm 2 mps 709 mmHg 75%
    09:00 +13°C° 0 mm 2 mps 710 mmHg 68%
    10:00 +13°C° 0 mm 3 mps 710 mmHg 68%
    11:00 +13°C° 0 mm 3 mps 710 mmHg 68%
    12:00 +14°C° 0 mm 3 mps 710 mmHg 68%
    13:00 +13°C° 0 mm 4 mps 710 mmHg 68%
    14:00 +13°C° 0 mm 4 mps 710 mmHg 68%
    15:00 +13°C° 0 mm 4 mps 709 mmHg 68%
    16:00 +11°C° 0 mm 4 mps 709 mmHg 72%
    17:00 +10°C° 0 mm 3 mps 709 mmHg 76%
    18:00 +8°C° 0 mm 3 mps 709 mmHg 80%
    19:00 +8°C° 0 mm 2 mps 710 mmHg 82%
    20:00 +7°C° 0 mm 2 mps 710 mmHg 84%
    21:00 +7°C° 0 mm 1 mps 711 mmHg 87%
    22:00 +7°C° 0 mm 1 mps 711 mmHg 87%
    23:00 +7°C° 0 mm 1 mps 711 mmHg 87%

    Tomorrow, 27 March, Wednesday

    Time Temperature Precipitation Wind Pressure Humidity
    00:00 +7°C° 0 mm 1 mps 711 mmHg 87%
    01:00 +6°C° 0 mm 1 mps 711 mmHg 88%
    02:00 +6°C° 0 mm 1 mps 710 mmHg 90%
    03:00 +5°C° 0 mm 1 mps 710 mmHg 92%
    04:00 +5°C° 0 mm 1 mps 710 mmHg 91%
    05:00 +5°C° 0 mm 1 mps 710 mmHg 91%
    06:00 +5°C° 0 mm 1 mps 710 mmHg 91%
    07:00 +7°C° 0 mm 1 mps 711 mmHg 84%
    08:00 +7°C° 0 mm 2 mps 711 mmHg 78%
    09:00 +9°C° 0 mm 2 mps 712 mmHg 71%
    10:00 +10°C° 0 mm 2 mps 712 mmHg 69%
    11:00 +11°C° 0 mm 3 mps 712 mmHg 66%
    12:00 +12°C° 0 mm 3 mps 712 mmHg 64%
    13:00 +12°C° 0 mm 3 mps 712 mmHg 67%
    14:00 +11°C° 0 mm 3 mps 711 mmHg 69%
    15:00 +11°C° 0 mm 4 mps 711 mmHg 71%
    16:00 +10°C° 0 mm 3 mps 711 mmHg 77%
    17:00 +9°C° 0 mm 3 mps 711 mmHg 82%
    18:00 +8°C° 0 mm 2 mps 712 mmHg 88%
    19:00 +7°C° 0 mm 2 mps 712 mmHg 90%
    20:00 +7°C° 0 mm 2 mps 712 mmHg 92%
    21:00 +7°C° 0 mm 1 mps 713 mmHg 94%
    22:00 +6°C° 0 mm 1 mps 713 mmHg 95%
    23:00 +6°C° 0 mm 1 mps 713 mmHg 96%

    Day after tomorrow, 28 March, Thursday

    Time Temperature Precipitation Wind Pressure Humidity
    00:00 +5°C° 0 mm 0 mps 713 mmHg 96%
    01:00 +4°C° 0 mm 0 mps 713 mmHg 96%
    02:00 +4°C° 0 mm 0 mps 713 mmHg 96%
    03:00 +4°C° 0 mm 0 mps 713 mmHg 96%
    04:00 +4°C° 0 mm 0 mps 713 mmHg 96%
    05:00 +4°C° 0 mm 0 mps 713 mmHg 96%
    06:00 +4°C° 0 mm 0 mps 713 mmHg 95%
    07:00 +6°C° 0 mm 0 mps 714 mmHg 87%
    08:00 +9°C° 0 mm 1 mps 714 mmHg 78%
    09:00 +12°C° 0 mm 1 mps 715 mmHg 70%
    10:00 +12°C° 0 mm 1 mps 715 mmHg 66%
    11:00 +13°C° 0 mm 2 mps 715 mmHg 62%
    12:00 +14°C° 0 mm 2 mps 715 mmHg 58%
    13:00 +14°C° 0.1 mm 2 mps 715 mmHg 61%
    14:00 +14°C° 0.1 mm 2 mps 714 mmHg 64%
    15:00 +13°C° 0.1 mm 3 mps 714 mmHg 67%
    16:00 +11°C° 0.2 mm 3 mps 714 mmHg 74%
    17:00 +10°C° 0.2 mm 2 mps 714 mmHg 82%
    18:00 +9°C° 0.2 mm 2 mps 714 mmHg 90%
    19:00 +8°C° 0 mm 2 mps 714 mmHg 92%
    20:00 +8°C° 0 mm 1 mps 715 mmHg 94%
    21:00 +6°C° 0 mm 0 mps 715 mmHg 95%
    22:00 +6°C° 0 mm 0 mps 715 mmHg 96%
    23:00 +5°C° 0 mm 0 mps 715 mmHg 96%

    29 March, Friday

    Time Temperature Precipitation Wind Pressure Humidity
    00:00 +5°C° 0 mm 0 mps 715 mmHg 96%
    01:00 +5°C° 0 mm 0 mps 715 mmHg 95%
    02:00 +5°C° 0 mm 0 mps 715 mmHg 94%
    03:00 +5°C° 0 mm 0 mps 714 mmHg 94%
    04:00 +5°C° 0 mm 0 mps 714 mmHg 93%
    05:00 +6°C° 0 mm 1 mps 715 mmHg 92%
    06:00 +6°C° 0 mm 1 mps 715 mmHg 91%
    07:00 +9°C° 0 mm 1 mps 715 mmHg 83%
    08:00 +11°C° 0 mm 1 mps 716 mmHg 75%
    09:00 +13°C° 0 mm 1 mps 716 mmHg 67%
    10:00 +15°C° 0 mm 1 mps 716 mmHg 62%
    11:00 +16°C° 0 mm 1 mps 716 mmHg 57%
    12:00 +18°C° 0 mm 1 mps 716 mmHg 52%
    13:00 +18°C° 0.2 mm 1 mps 716 mmHg 52%
    14:00 +18°C° 0.2 mm 1 mps 715 mmHg 53%
    15:00 +17°C° 0.2 mm 2 mps 715 mmHg 53%
    16:00 +15°C° 0.2 mm 2 mps 715 mmHg 61%
    17:00 +14°C° 0.2 mm 2 mps 714 mmHg 70%
    18:00 +12°C° 0.2 mm 2 mps 714 mmHg 78%
    19:00 +12°C° 0 mm 2 mps 714 mmHg 80%
    20:00 +10°C° 0 mm 2 mps 715 mmHg 83%
    21:00 +11°C° 0 mm 1 mps 715 mmHg 85%
    22:00 +10°C° 0 mm 1 mps 715 mmHg 84%
    23:00 +9°C° 0 mm 1 mps 715 mmHg 84%

    30 March, Saturday

    Time Temperature Precipitation Wind Pressure Humidity
    00:00 +9°C° 0 mm 1 mps 714 mmHg 83%
    01:00 +8°C° 0 mm 1 mps 714 mmHg 81%
    02:00 +8°C° 0 mm 1 mps 714 mmHg 80%
    03:00 +8°C° 0 mm 1 mps 714 mmHg 78%
    04:00 +7°C° 0 mm 2 mps 714 mmHg 78%
    05:00 +8°C° 0 mm 2 mps 714 mmHg 78%
    06:00 +8°C° 0 mm 2 mps 714 mmHg 78%
    07:00 +10°C° 0 mm 2 mps 714 mmHg 70%
    08:00 +12°C° 0 mm 3 mps 715 mmHg 62%
    09:00 +16°C° 0 mm 3 mps 715 mmHg 55%
    10:00 +17°C° 0 mm 3 mps 715 mmHg 50%
    11:00 +18°C° 0 mm 2 mps 714 mmHg 45%
    12:00 +19°C° 0 mm 2 mps 714 mmHg 40%
    13:00 +20°C° 0 mm 1 mps 714 mmHg 39%
    14:00 +20°C° 0 mm 1 mps 713 mmHg 37%
    15:00 +21°C° 0 mm 1 mps 713 mmHg 36%
    16:00 +19°C° 0 mm 1 mps 713 mmHg 46%
    17:00 +16°C° 0 mm 1 mps 712 mmHg 56%
    18:00 +14°C° 0 mm 2 mps 712 mmHg 66%
    19:00 +13°C° 0 mm 1 mps 712 mmHg 70%
    20:00 +12°C° 0 mm 1 mps 712 mmHg 75%
    21:00 +10°C° 0 mm 0 mps 712 mmHg 80%
    22:00 +11°C° 0 mm 1 mps 712 mmHg 78%
    23:00 +11°C° 0 mm 1 mps 711 mmHg 75%

    31 March, Sunday

    Time Temperature Precipitation Wind Pressure Humidity
    00:00 +11°C° 0 mm 1 mps 711 mmHg 73%
    01:00 +11°C° 0 mm 1 mps 710 mmHg 72%
    02:00 +10°C° 0 mm 2 mps 710 mmHg 72%
    03:00 +9°C° 0 mm 2 mps 710 mmHg 71%
    04:00 +10°C° 0 mm 2 mps 710 mmHg 71%
    05:00 +11°C° 0 mm 1 mps 709 mmHg 72%
    06:00 +11°C° 0 mm 1 mps 709 mmHg 72%
    07:00 +13°C° 0 mm 1 mps 709 mmHg 66%
    08:00 +15°C° 0 mm 1 mps 710 mmHg 61%
    09:00 +16°C° 0 mm 1 mps 710 mmHg 55%
    10:00 +18°C° 0 mm 1 mps 709 mmHg 51%
    11:00 +20°C° 0 mm 1 mps 709 mmHg 48%
    12:00 +19°C° 0 mm 0 mps 709 mmHg 45%
    13:00 +20°C° 0.2 mm 1 mps 709 mmHg 49%
    14:00 +19°C° 0.2 mm 2 mps 708 mmHg 52%
    15:00 +18°C° 0.2 mm 2 mps 708 mmHg 56%
    16:00 +17°C° 0.7 mm 2 mps 708 mmHg 64%
    17:00 +15°C° 0.7 mm 2 mps 708 mmHg 73%
    18:00 +14°C° 0.7 mm 2 mps 708 mmHg 81%
    19:00 +13°C° 0.4 mm 1 mps 708 mmHg 81%
    20:00 +13°C° 0.4 mm 1 mps 708 mmHg 82%
    21:00 +12°C° 0.4 mm 0 mps 708 mmHg 83%
    22:00 +11°C° 0 mm 0 mps 708 mmHg 83%
    23:00 +11°C° 0 mm 0 mps 708 mmHg 83%
    Show more